Regional Weather Roundup
Issued by NWS

Home | Current Version | Previous Version | Text Only | Print | Product List | Glossary Off
Versions: 1 2 3 4 5 6 7 8 9 10 11 12 13 14 15 16 17 18 19 20 21 22 23 24 25 26 27 28 29 30 31 32 33 34 35 36 37 38 39 40 41 42 43 44 45 46 47 48 49 50

000
ASUS43 KMKX 010400
RWRWI

WISCONSIN REGIONAL WEATHER ROUNDUP
NATIONAL WEATHER SERVICE MILWAUKEE/SULLIVAN WI
1100 PM CDT THU JUL 31 2014

NOTE: "FAIR" INDICATES FEW OR NO CLOUDS BELOW 12,000 FEET WITH NO
SIGNIFICANT WEATHER AND/OR OBSTRUCTIONS TO VISIBILITY.

WIZ001-002-006>008-014>016-023>028-010500-
NORTHWEST WISCONSIN

CITY           SKY/WX    TMP DP  RH WIND       PRES   REMARKS
SUPERIOR ARPT  CLEAR     58  57  97 CALM      29.98R
ASHLAND        CLEAR     60  58  92 W3        29.99R
HAYWARD        CLEAR     62  60  93 CALM      30.00S
SIREN          PTCLDY    65  63  94 CALM      30.00S
RICE LAKE      CLEAR     64  61  89 CALM      30.01S
LADYSMITH        N/A     62  61  96 CALM      30.02S FOG
EAU CLAIRE     NOT AVBL
MENOMONIE      CLEAR     67  59  75 CALM      30.01R
NEW RICHMOND   CLEAR     64  57  78 W5        30.01S
OSCEOLA        CLEAR     64  62  93 CALM      30.02S
$$

WIZ003>005-009-010-017-018-010500-
NORTH CENTRAL WISCONSIN

CITY           SKY/WX    TMP DP  RH WIND       PRES   REMARKS
WOODRUFF       CLEAR     57  46  66 CALM      30.01S
RHINELANDER    CLEAR     54  52  93 CALM      30.02S
EAGLE RIVER    PTCLDY    54  54  99 CALM      30.01S FOG
LAND O LAKES   PTCLDY    54  54  97 CALM      30.02S
PHILLIPS       PTCLDY    60  59  99 CALM      30.00S
TOMAHAWK         N/A     56  54  95 CALM      30.01F FOG
MEDFORD        PTCLDY    58  57  99 CALM      30.02S FOG
MERRILL        MOCLDY    61  61  99 CALM      30.00S
$$

WIZ029-030-035-036-043>047-010500-
CENTRAL WISCONSIN

CITY           SKY/WX    TMP DP  RH WIND       PRES   REMARKS
WAUSAU         PTCLDY    66  60  81 NW5       29.99S
MOSINEE        PTCLDY    64  63  94 W3        30.02R
MARSHFIELD     PTCLDY    63  59  87 CALM      30.01S
STEVENS POINT  CLEAR     63  61  94 CALM      30.01S
WAUPACA        CLEAR     66  59  79 CALM      30.00S
WAUTOMA        NOT AVBL
WISC RAPIDS    CLEAR     67  59  75 W6        30.02R
CAMP DOUGLAS   CLEAR     59  59 100 NW1       30.02S
$$

WIZ011>013-019>022-031-037>040-048>050-010500-
NORTHEAST WISCONSIN

CITY           SKY/WX    TMP DP  RH WIND       PRES   REMARKS
ANTIGO         CLEAR     57  56  95 CALM      30.02S
STURGEON BAY   CLEAR     63  57  82 CALM      29.98S
GREEN BAY      PTCLDY    63  60  90 W5        29.98S
MANITOWOC      PTCLDY    63  61  94 CALM      29.99R FOG
APPLETON       MOCLDY    66  57  72 W7        30.00S
CLINTONVILLE   PTCLDY    63  59  88 CALM      29.99S
OSHKOSH        PTCLDY    67  63  87 W5        29.99S
$$

WIZ032>034-041-042-053>061-010500-
SOUTHWEST WISCONSIN

CITY           SKY/WX    TMP DP  RH WIND       PRES   REMARKS
LA CROSSE      CLEAR     67  62  84 SE6       30.01R
SPARTA         CLEAR     61  59  94 CALM      30.03S
VIROQUA        FAIR      65  58  77 S3        30.05R
BOSCOBEL       CLEAR     62  59  90 CALM      30.03S
PRAIRIE DU CHI CLEAR     63  58  84 E3        30.03S
PLATTEVILLE    FAIR      67  58  74 S3        30.05S
$$

WIZ056-057-062-063-064-067-068-010500-
SOUTH CENTRAL WISCONSIN

CITY           SKY/WX    TMP DP  RH WIND       PRES   REMARKS
BARABOO/DELLS  CLEAR     62  56  80 CALM      30.03S
LONE ROCK      NOT AVBL
WATERTOWN      CLEAR     64  60  88 CALM      30.02R
MADISON        MOCLDY    65  59  81 CALM      30.02S
MIDDLETON      FAIR      62  60  92 CALM      30.03F
MONROE         CLEAR     64  59  82 SW6       30.05S
JANESVILLE     CLEAR     66  57  72 CALM      30.03R
$$

WIZ051-052-058>065-066-070>072-010500-
SOUTHEAST WISCONSIN

CITY           SKY/WX    TMP DP  RH WIND       PRES   REMARKS
MILWAUKEE      CLEAR     73  57  57 W8        30.01S
WAUKESHA       CLEAR     64  55  72 SW3       30.03S
MILWAUKEE/TIMM CLEAR     68  55  64 SW3       30.02S
RACINE         CLEAR     67  58  72 SW6       30.03S
BURLINGTON     CLEAR     59  56  92 SW5       30.02S
KENOSHA        CLEAR     67  59  75 SW5       30.03S
FOND DU LAC    MOCLDY    64  60  87 SW5       30.01R
SHEBOYGAN      PTCLDY    65  62  90 CALM      29.99S
WEST BEND      PTCLDY    64  57  77 CALM      30.02R
JUNEAU         CLEAR     65  58  77 SW3       30.03S
$$

LSZ147-162-010500-
LAKE SUPERIOR

STATION/POSITION TIME  TEMP    WIND        PRES    WAVE
                       AIR SEA DIR/SP/G            HT/PER
                 (UTC) (F)     (DEG/KT/KT) (MB)    (FT/S)
W MID LAKE BUOY  0250   52 45  120/  4/  6 1014.7R   0
PORT WING        0340   62     140/  3/  4 1015.2R
SAXON HARBOR     0300           CALM  /  2 1014.9R
$$

LMZ867-665-643>646-010500-
LAKE MICHIGAN

STATION/POSITION TIME  TEMP    WIND        PRES    WAVE
                       AIR SEA DIR/SP/G            HT/PER
                 (UTC) (F)     (DEG/KT/KT) (MB)    (FT/S)
N MID LAKE BUOY  0250   60 56  240/  8/ 10 1014.8R   2/ 4
NORTHPORT PIER   0300   64      CALM  /  2 1014.9R
SISTER BAY       0226   66        CALM       N/A
ALGOMA LAKESHORE 0306          220/  6/  7   N/A
KEWAUNEE LAKESHO 0300   60     290/  2/  4 1014.2F
SHEBOYGAN LAKESH 0300   71     230/  5/  6 1015.4F
PORT WASHINGTON  0300   71     280/  3/  5 1016.3
ATWATER BUOY     0300   71     220/  6     1017.1R
MILWAUKEE LAKESH 0300   75     240/  8/  9   N/A
S MID LAKE BUOY  0250   66 63  210/  8/  8 1016.5R   0
KENOSHA   LAKESH 0300   74     230/  5/  7 1016.3R
$$

TC  - TEMPERATURE IN CELSIUS
VSB - VISIBILITY IN STATUTE MILES
WCI - WIND CHILL INDEX
HX  - HEAT INDEX




USA.gov is the U.S. government's official web portal to all federal, state and local government web resources and services.